Location: Malmö
(55.6090°N, 13.0007°E)
Time: 08:05:51
(UTC+01:00)

ISS - Visible Passes

Search period start: 24 January 2021 00:00
Search period end: 03 February 2021 00:00
Orbit: 418 x 421 km, 51.6° (Epoch: 24 January)

Date Brightness Start Highest point End Pass type
(mag) Time Alt. Az. Time Alt. Az. Time Alt. Az.
24 Jan -1.4 17:11:26 10° S 17:13:20 14° SSE 17:15:14 10° ESE visible
24 Jan -2.7 18:46:23 10° SW 18:49:26 34° SSE 18:49:26 34° SSE visible
25 Jan -2.4 17:59:15 10° SW 18:02:14 29° SSE 18:04:00 18° ESE visible
25 Jan -1.5 19:35:26 10° WSW 19:36:58 23° WSW 19:36:58 23° WSW visible
26 Jan -2.0 17:12:13 10° SSW 17:15:00 24° SSE 17:17:47 10° E visible
26 Jan -3.0 18:48:08 10° WSW 18:51:21 42° S 18:51:32 41° SSE visible
27 Jan -2.8 18:00:52 10° WSW 18:04:03 39° S 18:06:05 19° ESE visible
27 Jan -1.6 19:37:20 10° W 19:39:04 24° WSW 19:39:04 24° WSW visible
28 Jan -2.5 17:13:38 10° SW 17:16:45 34° SSE 17:19:52 10° E visible
28 Jan -3.0 18:49:59 10° WSW 18:53:12 41° S 18:53:37 39° SSE visible
29 Jan -2.8 18:02:38 10° WSW 18:05:52 42° S 18:08:11 17° ESE visible
29 Jan -1.5 19:39:20 10° W 19:41:09 22° SW 19:41:09 22° SW visible
30 Jan -2.7 17:15:18 10° WSW 17:18:32 42° S 17:21:45 10° ESE visible
30 Jan -2.4 18:51:53 10° W 18:54:58 33° SSW 18:55:46 29° SSE visible
31 Jan -2.5 18:04:29 10° W 18:07:38 37° S 18:10:25 12° SE visible
31 Jan -1.2 19:41:33 10° WSW 19:43:24 17° SW 19:43:24 17° SW visible
01 Feb -2.6 17:17:04 10° WSW 17:20:17 41° S 17:23:30 10° ESE visible
01 Feb -1.6 18:53:55 10° WSW 18:56:36 22° SSW 18:58:08 17° S visible
02 Feb -1.9 18:06:23 10° W 18:09:18 27° SSW 18:12:14 10° SE visible
